SM7GXQ Weather Reports


time (UTC)temp
F
wind
direction
speed
knots
gust
knots
rain 1hr
in
rain 24hr
in
rain mn
in
humidity
%
barometer
mb
20260905113005 64 278 5.2 10.4 0.03 0.29 0.04 76 1001.3
20260905100004 62 256 4.3 10.4 0.00 0.26 0.01 81 1000.5
20260905084504 62 277 5.2 11.3 0.00 0.26 0.01 82 999.8
20260905080006 61 276 7.0 11.3 0.00 0.26 0.01 83 999.2
20260905070005 59 260 4.3 10.4 0.00 0.26 0.01 87 999.0
20260905060004 58 273 2.6 10.4 0.00 0.26 0.01 89 998.2
20260905054504 58 280 6.1 11.3 0.00 0.26 0.01 89 998.0
20260905051504 58 260 2.6 8.7 0.00 0.26 0.01 90 998.0
20260905043005 57 265 2.6 10.4 0.00 0.26 0.01 91 997.4
20260905041505 57 274 2.6 7.8 0.00 0.26 0.01 91 997.0
20260905033005 57 264 2.6 7.8 0.00 0.26 0.01 91 996.4
20260905030005 57 275 1.7 7.0 0.00 0.26 0.01 91 996.0
20260905023005 57 271 2.6 10.4 0.00 0.26 0.01 89 996.0
20260905021505 57 251 2.6 8.7 0.01 0.26 0.01 89 996.0
20260905020005 57 251 3.5 8.7 0.01 0.26 0.01 89 996.0
20260905014504 58 272 2.6 10.4 0.01 0.27 0.01 90 996.0
20260905010004 58 248 2.6 7.8 0.00 0.28 0.00 90 995.9
20260905003003 58 271 3.5 10.4 0.00 0.28 0.00 91 995.9
20260905001503 58 251 2.6 10.4 0.00 0.28 0.00 91 995.9
20260904234504 58 268 2.6 7.8 0.00 0.28 0.00 90 995.5
20260904231504 59 280 3.5 7.8 0.00 0.28 0.00 91 995.5
20260904230004 59 281 4.3 7.0 0.00 0.28 0.00 91 995.7
20260904223004 59 293 2.6 5.2 0.00 0.28 0.00 92 995.5
20260904221505 59 277 1.7 5.2 0.00 0.28 0.00 93 995.1
20260904220004 59 279 3.5 6.1 0.00 0.28 0.00 93 995.1
20260904214505 59 269 2.6 5.2 0.00 0.28 0.28 93 995.1
20260904210004 59 232 0.9 4.3 0.00 0.31 0.28 93 995.0
20260904204504 59 259 1.7 5.2 0.00 0.35 0.28 93 995.1
20260904203005 59 207 0.9 7.0 0.00 0.37 0.28 93 995.2
20260904184504 59 236 1.7 5.2 0.01 0.38 0.28 93 995.6
20260904181503 59 220 2.6 8.7 0.00 0.62 0.27 93 995.6
20260904180004 59 230 2.6 7.0 0.02 0.62 0.27 93 995.6
20260904174504 59 195 2.6 10.4 0.05 0.62 0.27 94 995.6
20260904170004 59 212 0.9 7.0 0.07 0.61 0.25 93 996.0
20260904164505 59 224 1.7 7.0 0.05 0.58 0.22 93 996.0
20260904163004 59 213 2.6 6.1 0.03 0.57 0.20 93 996.5
20260904161504 59 202 2.6 6.1 0.05 0.57 0.20 93 996.5
20260904160005 59 170 1.7 6.1 0.05 0.55 0.18 93 996.5
20260904150004 59 211 2.6 10.4 0.06 0.50 0.13 92 997.1
20260904143005 59 182 0.9 4.3 0.04 0.47 0.10 91 997.7
20260904130004 60 209 3.5 10.4 0.02 0.43 0.05 87 999.0
20260904121504 61 241 2.6 11.3 0.00 0.40 0.02 82 999.2